CCA233 FZAA-HRYR

Flight info

Callsign CCA233
Flight time N/A
Altitude 41000
Route ULVAS2A ULVAS UA613 KIN UL442 KAROS KAROS2A
Aircraft B78X/H-SDE1E2E3FGHIJ2J3J4J5M1RWXY/LB1D1

Departure

Time N/A
Airport Ndjili International Airport (FZAA)

Arrival

Time 2026-04-25 19:28
Airport Kigali International Airport (HRYR)
Time Latitude Longitude Altitude Speed Heading
2026-04-25 17:34 -4.30390 16.14594 19038 ft 465 kts 82°
2026-04-25 17:34 -4.29954 16.17803 19356 ft 467 kts 82°
2026-04-25 17:35 -4.29514 16.21043 19659 ft 469 kts 82°
2026-04-25 17:35 -4.29073 16.24284 19958 ft 471 kts 82°
2026-04-25 17:35 -4.28630 16.27540 20241 ft 473 kts 82°
2026-04-25 17:35 -4.28185 16.30812 20519 ft 475 kts 82°
2026-04-25 17:36 -4.27739 16.34091 20802 ft 477 kts 82°
2026-04-25 17:36 -4.27289 16.37392 21064 ft 479 kts 82°
2026-04-25 17:36 -4.26838 16.40704 21317 ft 480 kts 82°
2026-04-25 17:36 -4.26387 16.44021 21564 ft 482 kts 82°
2026-04-25 17:37 -4.25932 16.47354 21795 ft 484 kts 82°
2026-04-25 17:37 -4.25476 16.50698 22035 ft 485 kts 82°
2026-04-25 17:37 -4.25020 16.54044 22259 ft 487 kts 82°
2026-04-25 17:37 -4.24561 16.57410 22474 ft 488 kts 82°
2026-04-25 17:38 -4.24101 16.60780 22684 ft 489 kts 82°
2026-04-25 17:38 -4.23944 16.61929 22759 ft 490 kts 82°
2026-04-25 17:38 -4.23177 16.67550 23080 ft 492 kts 82°
2026-04-25 17:38 -4.22711 16.70957 23269 ft 493 kts 82°
2026-04-25 17:39 -4.22246 16.74355 23457 ft 494 kts 82°
2026-04-25 17:39 -4.21774 16.77770 23618 ft 495 kts 82°
2026-04-25 17:39 -4.21301 16.81181 23768 ft 496 kts 82°
2026-04-25 17:39 -4.20829 16.84607 23917 ft 497 kts 82°
2026-04-25 17:40 -4.20356 16.88037 24057 ft 497 kts 82°
2026-04-25 17:40 -4.19881 16.91475 24194 ft 498 kts 82°
2026-04-25 17:40 -4.19406 16.94911 24335 ft 499 kts 82°
2026-04-25 17:40 -4.18930 16.98361 24479 ft 500 kts 82°
2026-04-25 17:41 -4.18455 17.01795 24750 ft 491 kts 82°
2026-04-25 17:41 -4.17990 17.05156 25165 ft 486 kts 82°
2026-04-25 17:41 -4.17527 17.08504 25519 ft 484 kts 82°
2026-04-25 17:41 -4.17065 17.11838 25878 ft 483 kts 82°
2026-04-25 17:42 -4.16605 17.15168 26238 ft 482 kts 82°
2026-04-25 17:42 -4.16144 17.18492 26605 ft 482 kts 82°
2026-04-25 17:42 -4.15840 17.20693 26848 ft 482 kts 82°
2026-04-25 17:42 -4.15379 17.24017 27226 ft 482 kts 82°
2026-04-25 17:43 -4.14919 17.27335 27607 ft 482 kts 82°
2026-04-25 17:43 -4.14457 17.30670 28002 ft 483 kts 82°
2026-04-25 17:43 -4.13839 17.35128 28522 ft 484 kts 82°
2026-04-25 17:43 -4.13532 17.37335 28793 ft 484 kts 82°
2026-04-25 17:44 -4.13069 17.40678 29192 ft 486 kts 82°
2026-04-25 17:44 -4.12603 17.44033 29594 ft 487 kts 82°
2026-04-25 17:44 -4.12132 17.47423 29798 ft 494 kts 82°
2026-04-25 17:44 -4.11657 17.50846 29927 ft 500 kts 82°
2026-04-25 17:45 -4.11174 17.54319 30105 ft 505 kts 82°
2026-04-25 17:45 -4.10853 17.56633 30241 ft 508 kts 82°
2026-04-25 17:45 -4.10199 17.61333 30552 ft 511 kts 82°
2026-04-25 17:45 -4.09708 17.64865 30815 ft 513 kts 82°
2026-04-25 17:46 -4.09216 17.68408 31104 ft 514 kts 82°
2026-04-25 17:46 -4.08728 17.71944 31419 ft 514 kts 82°
2026-04-25 17:46 -4.08237 17.75495 31760 ft 515 kts 82°
2026-04-25 17:46 -4.07744 17.79046 32127 ft 514 kts 82°
2026-04-25 17:47 -4.07252 17.82597 32515 ft 514 kts 82°
2026-04-25 17:47 -4.06761 17.86137 32916 ft 514 kts 82°
2026-04-25 17:47 -4.06271 17.89673 33339 ft 513 kts 82°
2026-04-25 17:47 -4.05780 17.93216 33764 ft 513 kts 82°
2026-04-25 17:48 -4.04800 18.00270 34544 ft 511 kts 82°
2026-04-25 17:48 -4.04311 18.03795 34907 ft 511 kts 82°
2026-04-25 17:48 -4.03821 18.07321 35286 ft 510 kts 82°
2026-04-25 17:49 -4.03333 18.10832 35676 ft 509 kts 82°
2026-04-25 17:49 -4.02846 18.14336 36071 ft 508 kts 82°
2026-04-25 17:49 -4.02366 18.17790 36473 ft 506 kts 82°
2026-04-25 17:49 -4.01876 18.21315 36887 ft 504 kts 82°
2026-04-25 17:50 -4.01392 18.24789 37284 ft 502 kts 82°
2026-04-25 17:50 -4.00919 18.28191 37695 ft 499 kts 82°
2026-04-25 17:50 -4.00441 18.31625 38080 ft 498 kts 82°
2026-04-25 17:50 -3.99963 18.35057 38477 ft 496 kts 82°
2026-04-25 17:51 -3.99488 18.38465 38818 ft 494 kts 82°
2026-04-25 17:51 -3.99014 18.41864 39127 ft 492 kts 82°
2026-04-25 17:51 -3.98543 18.45248 39433 ft 491 kts 82°
2026-04-25 17:51 -3.98069 18.48644 39749 ft 491 kts 82°
2026-04-25 17:52 -3.97596 18.52026 40057 ft 490 kts 82°
2026-04-25 17:52 -3.97278 18.54309 40271 ft 489 kts 82°
2026-04-25 17:52 -3.96659 18.58755 40676 ft 486 kts 82°
2026-04-25 17:52 -3.96191 18.62105 40921 ft 486 kts 82°
2026-04-25 17:53 -3.95721 18.65465 40934 ft 487 kts 82°
2026-04-25 17:53 -3.94798 18.72071 40915 ft 465 kts 82°
2026-04-25 17:53 -3.94359 18.75231 40911 ft 453 kts 82°
2026-04-25 17:54 -3.93925 18.78322 40910 ft 444 kts 82°
2026-04-25 17:54 -3.93055 18.84536 40929 ft 458 kts 82°
2026-04-25 17:55 -3.92159 18.90942 40941 ft 472 kts 82°
2026-04-25 17:55 -3.91238 18.97519 40938 ft 478 kts 82°
2026-04-25 17:56 -3.90316 19.04100 40939 ft 478 kts 82°
2026-04-25 17:56 -3.89392 19.10697 40940 ft 479 kts 82°
2026-04-25 17:57 -3.88465 19.17318 40946 ft 481 kts 82°
2026-04-25 17:57 -3.87537 19.23936 40937 ft 480 kts 82°
2026-04-25 17:58 -3.86610 19.30554 40939 ft 480 kts 82°
2026-04-25 17:58 -3.85679 19.37187 40945 ft 481 kts 82°
2026-04-25 17:59 -3.84750 19.43805 40952 ft 480 kts 82°
2026-04-25 17:59 -3.83820 19.50433 40942 ft 481 kts 81°
2026-04-25 18:00 -3.82888 19.57065 40947 ft 481 kts 81°
2026-04-25 18:00 -3.81955 19.63696 40944 ft 480 kts 81°
2026-04-25 18:01 -3.81023 19.70320 40938 ft 480 kts 81°
2026-04-25 18:01 -3.80092 19.76933 40931 ft 480 kts 81°
2026-04-25 18:02 -3.79166 19.83508 40948 ft 481 kts 81°
2026-04-25 18:02 -3.78231 19.90148 40949 ft 482 kts 81°
2026-04-25 18:03 -3.77296 19.96776 40952 ft 481 kts 81°
2026-04-25 18:03 -3.76360 20.03408 40938 ft 481 kts 81°
2026-04-25 18:04 -3.75425 20.10032 40949 ft 481 kts 81°
2026-04-25 18:04 -3.74488 20.16665 40947 ft 482 kts 81°
2026-04-25 18:05 -3.73550 20.23307 40961 ft 482 kts 81°
2026-04-25 18:05 -3.72609 20.29960 40958 ft 483 kts 81°
2026-04-25 18:06 -3.71667 20.36620 40948 ft 483 kts 81°
2026-04-25 18:06 -3.70724 20.43282 40956 ft 483 kts 81°
2026-04-25 18:07 -3.69781 20.49938 40954 ft 483 kts 81°
2026-04-25 18:07 -3.68837 20.56601 40958 ft 484 kts 81°
2026-04-25 18:08 -3.67892 20.63266 40948 ft 483 kts 81°
2026-04-25 18:08 -3.66947 20.69929 40949 ft 483 kts 81°
2026-04-25 18:09 -3.66002 20.76582 40959 ft 483 kts 81°
2026-04-25 18:09 -3.65057 20.83239 40961 ft 483 kts 81°
2026-04-25 18:10 -3.64112 20.89891 40949 ft 483 kts 81°
2026-04-25 18:10 -3.63173 20.96499 40945 ft 483 kts 81°
2026-04-25 18:11 -3.62221 21.03198 40948 ft 483 kts 81°
2026-04-25 18:11 -3.61280 21.09814 40962 ft 483 kts 81°
2026-04-25 18:12 -3.60332 21.16477 40970 ft 483 kts 81°
2026-04-25 18:12 -3.59378 21.23180 40955 ft 483 kts 81°
2026-04-25 18:13 -3.58435 21.29797 40961 ft 484 kts 81°
2026-04-25 18:13 -3.57478 21.36509 40966 ft 484 kts 81°
2026-04-25 18:14 -3.56059 21.46465 40969 ft 483 kts 81°
2026-04-25 18:14 -3.55109 21.53120 40952 ft 483 kts 81°
2026-04-25 18:15 -3.54158 21.59777 40958 ft 483 kts 81°
2026-04-25 18:15 -3.53208 21.66428 40950 ft 483 kts 81°
2026-04-25 18:16 -3.52257 21.73080 40964 ft 483 kts 81°
2026-04-25 18:17 -3.50829 21.83065 40971 ft 487 kts 81°
2026-04-25 18:17 -3.49871 21.89763 40956 ft 485 kts 81°
2026-04-25 18:18 -3.48915 21.96436 40970 ft 485 kts 81°
2026-04-25 18:18 -3.47959 22.03112 40961 ft 484 kts 81°
2026-04-25 18:19 -3.47002 22.09787 40965 ft 485 kts 81°
2026-04-25 18:19 -3.46046 22.16454 40951 ft 483 kts 81°
2026-04-25 18:20 -3.45091 22.23110 40953 ft 483 kts 81°
2026-04-25 18:20 -3.44134 22.29773 40965 ft 484 kts 81°
2026-04-25 18:21 -3.43184 22.36392 40970 ft 483 kts 81°
2026-04-25 18:21 -3.42228 22.43043 40953 ft 483 kts 81°
2026-04-25 18:22 -3.41272 22.49686 40966 ft 483 kts 81°
2026-04-25 18:22 -3.40315 22.56343 40967 ft 483 kts 81°
2026-04-25 18:23 -3.39357 22.62998 40960 ft 483 kts 81°
2026-04-25 18:23 -3.38400 22.69648 40960 ft 483 kts 81°
2026-04-25 18:24 -3.37441 22.76303 40959 ft 483 kts 81°
2026-04-25 18:24 -3.36482 22.82956 40953 ft 482 kts 81°
2026-04-25 18:25 -3.35527 22.89598 40969 ft 481 kts 81°
2026-04-25 18:25 -3.34574 22.96230 40971 ft 482 kts 81°
2026-04-25 18:26 -3.33619 23.02863 40963 ft 482 kts 81°
2026-04-25 18:26 -3.32663 23.09503 40960 ft 482 kts 81°
2026-04-25 18:27 -3.31713 23.16120 40955 ft 478 kts 81°
2026-04-25 18:27 -3.30764 23.22715 40963 ft 480 kts 81°
2026-04-25 18:28 -3.29815 23.29314 40966 ft 479 kts 81°
2026-04-25 18:28 -3.28865 23.35913 40954 ft 479 kts 81°
2026-04-25 18:29 -3.27440 23.45805 40949 ft 478 kts 81°
2026-04-25 18:30 -3.25729 23.57863 40970 ft 478 kts 82°
2026-04-25 18:30 -3.24825 23.64453 40969 ft 478 kts 82°
2026-04-25 18:31 -3.23905 23.71049 40974 ft 478 kts 82°
2026-04-25 18:31 -3.22995 23.77635 40962 ft 478 kts 82°
2026-04-25 18:32 -3.22081 23.84212 40965 ft 477 kts 82°
2026-04-25 18:32 -3.21022 23.91848 40963 ft 476 kts 82°
2026-04-25 18:33 -3.20258 23.97348 40962 ft 477 kts 82°
2026-04-25 18:33 -3.19345 24.03923 40962 ft 477 kts 82°
2026-04-25 18:34 -3.18432 24.10494 40968 ft 477 kts 82°
2026-04-25 18:34 -3.17516 24.17081 40973 ft 477 kts 82°
2026-04-25 18:35 -3.16601 24.23655 40959 ft 477 kts 82°
2026-04-25 18:35 -3.15687 24.30229 40968 ft 477 kts 82°
2026-04-25 18:36 -3.14771 24.36802 40971 ft 477 kts 82°
2026-04-25 18:36 -3.13854 24.43384 40970 ft 477 kts 83°
2026-04-25 18:37 -3.12938 24.49959 40968 ft 477 kts 83°
2026-04-25 18:37 -3.12021 24.56536 40962 ft 480 kts 83°
2026-04-25 18:38 -3.11097 24.63158 40969 ft 479 kts 83°
2026-04-25 18:38 -3.10176 24.69756 40962 ft 479 kts 83°
2026-04-25 18:39 -3.09253 24.76368 40960 ft 480 kts 83°
2026-04-25 18:39 -3.08328 24.82991 40963 ft 481 kts 83°
2026-04-25 18:40 -3.07409 24.89566 40968 ft 480 kts 83°
2026-04-25 18:40 -3.06485 24.96172 40968 ft 479 kts 83°
2026-04-25 18:41 -3.05560 25.02780 40967 ft 480 kts 83°
2026-04-25 18:41 -3.04637 25.09377 40963 ft 479 kts 83°
2026-04-25 18:42 -3.03863 25.14907 40959 ft 478 kts 83°
2026-04-25 18:42 -3.02659 25.22549 40967 ft 479 kts 82°
2026-04-25 18:43 -3.01616 25.29127 40966 ft 479 kts 82°
2026-04-25 18:43 -3.00526 25.35711 40969 ft 481 kts 82°
2026-04-25 18:44 -2.99459 25.42315 40973 ft 481 kts 82°
2026-04-25 18:44 -2.98378 25.48907 40971 ft 480 kts 82°
2026-04-25 18:45 -2.97305 25.55496 40956 ft 480 kts 82°
2026-04-25 18:45 -2.96227 25.62089 40956 ft 480 kts 82°
2026-04-25 18:46 -2.95150 25.68692 40957 ft 482 kts 81°
2026-04-25 18:46 -2.94069 25.75301 40960 ft 482 kts 81°
2026-04-25 18:47 -2.92988 25.81915 40958 ft 482 kts 82°
2026-04-25 18:47 -2.91907 25.88525 40958 ft 481 kts 81°
2026-04-25 18:48 -2.90613 25.95091 40965 ft 481 kts 79°
2026-04-25 18:48 -2.89297 26.01671 40967 ft 483 kts 79°
2026-04-25 18:49 -2.87941 26.08250 40972 ft 483 kts 79°
2026-04-25 18:49 -2.86615 26.14794 40975 ft 483 kts 79°
2026-04-25 18:50 -2.85266 26.21385 40972 ft 483 kts 79°
2026-04-25 18:50 -2.83924 26.27969 40976 ft 483 kts 79°
2026-04-25 18:51 -2.82797 26.33488 40984 ft 483 kts 79°
2026-04-25 18:51 -2.81235 26.41140 40976 ft 483 kts 79°
2026-04-25 18:52 -2.79891 26.47721 40977 ft 483 kts 79°
2026-04-25 18:52 -2.78544 26.54314 40976 ft 483 kts 79°
2026-04-25 18:53 -2.77197 26.60904 40976 ft 485 kts 79°
2026-04-25 18:53 -2.75843 26.67507 40981 ft 484 kts 79°
2026-04-25 18:54 -2.73799 26.77400 40978 ft 484 kts 79°
2026-04-25 18:55 -2.72440 26.83984 40975 ft 483 kts 79°
2026-04-25 18:55 -2.71071 26.90615 40979 ft 489 kts 79°
2026-04-25 18:56 -2.69699 26.97259 40976 ft 487 kts 79°
2026-04-25 18:56 -2.68330 27.03889 40976 ft 487 kts 79°
2026-04-25 18:57 -2.66958 27.10530 40974 ft 488 kts 79°
2026-04-25 18:57 -2.65584 27.17177 40973 ft 489 kts 79°
2026-04-25 18:58 -2.64202 27.23860 40977 ft 490 kts 79°
2026-04-25 18:58 -2.62133 27.33866 40981 ft 490 kts 79°
2026-04-25 18:59 -2.59372 27.47210 40977 ft 490 kts 79°
2026-04-25 19:00 -2.57291 27.57260 40976 ft 491 kts 79°
2026-04-25 19:01 -2.55212 27.67297 40976 ft 492 kts 79°
2026-04-25 19:01 -2.53826 27.73989 40985 ft 491 kts 79°
2026-04-25 19:02 -2.51750 27.84008 40987 ft 490 kts 79°
2026-04-25 19:03 -2.50142 27.91763 40986 ft 490 kts 79°
2026-04-25 19:03 -2.48299 28.00651 40988 ft 491 kts 79°
2026-04-25 19:04 -2.46216 28.10691 41011 ft 494 kts 80°
2026-04-25 19:05 -2.43438 28.24120 41023 ft 493 kts 80°
2026-04-25 19:06 -2.42047 28.30840 41028 ft 494 kts 80°
2026-04-25 19:06 -2.39961 28.40911 41046 ft 491 kts 80°
2026-04-25 19:07 -2.37884 28.50939 41058 ft 491 kts 80°
2026-04-25 19:08 -2.35840 28.60796 40552 ft 476 kts 80°
2026-04-25 19:09 -2.33817 28.70562 38578 ft 478 kts 79°
2026-04-25 19:09 -2.33597 28.71624 38344 ft 478 kts 79°
2026-04-25 19:09 -2.31781 28.80377 36462 ft 487 kts 79°
2026-04-25 19:10 -2.30964 28.83666 35708 ft 488 kts 76°
2026-04-25 19:10 -2.30104 28.86957 34926 ft 491 kts 76°
2026-04-25 19:10 -2.29254 28.90271 34109 ft 493 kts 76°
2026-04-25 19:10 -2.28397 28.93589 33213 ft 494 kts 76°
2026-04-25 19:11 -2.27528 28.96910 32320 ft 493 kts 75°
2026-04-25 19:11 -2.26662 29.00232 31393 ft 495 kts 75°
2026-04-25 19:11 -2.25794 29.03578 30415 ft 497 kts 75°
2026-04-25 19:11 -2.24930 29.06916 29331 ft 497 kts 75°
2026-04-25 19:12 -2.24060 29.10257 28236 ft 497 kts 75°
2026-04-25 19:12 -2.23184 29.13619 27084 ft 501 kts 75°
2026-04-25 19:12 -2.22306 29.17000 25882 ft 502 kts 75°
2026-04-25 19:12 -2.21431 29.20370 24703 ft 499 kts 75°
2026-04-25 19:13 -2.20561 29.23715 23508 ft 497 kts 75°
2026-04-25 19:13 -2.19651 29.27028 22497 ft 488 kts 71°
2026-04-25 19:13 -2.18378 29.30114 21872 ft 471 kts 65°
2026-04-25 19:13 -2.16996 29.33033 21246 ft 460 kts 64°
2026-04-25 19:14 -2.15667 29.35935 20640 ft 458 kts 66°
2026-04-25 19:14 -2.15260 29.36886 20448 ft 456 kts 66°
2026-04-25 19:14 -2.13231 29.41703 19461 ft 448 kts 66°
2026-04-25 19:14 -2.11989 29.44504 18891 ft 434 kts 66°
2026-04-25 19:15 -2.10776 29.47222 18308 ft 421 kts 66°
2026-04-25 19:15 -2.09623 29.49867 17751 ft 408 kts 66°
2026-04-25 19:15 -2.08516 29.52425 17228 ft 395 kts 66°
2026-04-25 19:15 -2.07431 29.54905 16706 ft 384 kts 66°
2026-04-25 19:16 -2.06369 29.57319 16213 ft 374 kts 66°
2026-04-25 19:16 -2.05340 29.59668 15721 ft 364 kts 67°
2026-04-25 19:16 -2.04339 29.61959 15254 ft 355 kts 67°
2026-04-25 19:16 -2.03359 29.64201 14792 ft 347 kts 67°
2026-04-25 19:17 -2.02403 29.66384 14345 ft 339 kts 67°
2026-04-25 19:17 -2.01467 29.68521 13890 ft 332 kts 68°
2026-04-25 19:17 -2.00552 29.70612 13430 ft 325 kts 68°
2026-04-25 19:17 -1.99658 29.72656 13014 ft 317 kts 68°
2026-04-25 19:18 -1.98781 29.74658 12606 ft 310 kts 68°
2026-04-25 19:18 -1.97927 29.76607 12221 ft 303 kts 68°
2026-04-25 19:18 -1.97092 29.78516 11815 ft 297 kts 68°
2026-04-25 19:18 -1.96269 29.80396 11433 ft 292 kts 68°
2026-04-25 19:19 -1.95463 29.82240 11048 ft 287 kts 68°
2026-04-25 19:19 -1.94934 29.83446 10796 ft 284 kts 68°
2026-04-25 19:19 -1.94149 29.85239 10420 ft 280 kts 68°
2026-04-25 19:19 -1.93632 29.86421 10175 ft 282 kts 68°
2026-04-25 19:20 -1.92686 29.88827 9658 ft 273 kts 82°
2026-04-25 19:20 -1.92774 29.90668 9311 ft 263 kts 100°
2026-04-25 19:20 -1.93074 29.92454 8965 ft 258 kts 102°
2026-04-25 19:20 -1.93399 29.94198 8629 ft 253 kts 101°
2026-04-25 19:21 -1.93709 29.95919 8301 ft 250 kts 101°
2026-04-25 19:21 -1.94297 29.99311 7649 ft 245 kts 101°
2026-04-25 19:21 -1.94591 30.00983 7328 ft 243 kts 101°
2026-04-25 19:22 -1.94882 30.02638 7012 ft 241 kts 101°
2026-04-25 19:22 -1.95170 30.04280 6692 ft 239 kts 100°
2026-04-25 19:22 -1.95743 30.07533 6038 ft 236 kts 99°
2026-04-25 19:23 -1.96024 30.09141 5719 ft 233 kts 99°
2026-04-25 19:23 -1.96579 30.12315 5145 ft 230 kts 99°
2026-04-25 19:23 -1.96849 30.13848 5113 ft 217 kts 99°
2026-04-25 19:24 -1.97100 30.15283 5109 ft 202 kts 99°
2026-04-25 19:24 -1.97340 30.16659 5110 ft 200 kts 99°
2026-04-25 19:24 -1.97816 30.19375 5122 ft 199 kts 99°
2026-04-25 19:25 -1.98742 30.21946 5128 ft 209 kts 144°
2026-04-25 19:25 -2.00056 30.22428 5112 ft 205 kts 184°
2026-04-25 19:25 -2.01383 30.21973 5108 ft 202 kts 223°
2026-04-25 19:26 -2.02123 30.20798 5111 ft 199 kts 261°
2026-04-25 19:26 -2.02099 30.19404 5147 ft 201 kts 272°
2026-04-25 19:26 -2.02144 30.18029 5141 ft 198 kts 268°
2026-04-25 19:26 -2.02179 30.16665 5137 ft 197 kts 270°
2026-04-25 19:27 -2.02190 30.15304 5139 ft 196 kts 270°
2026-04-25 19:27 -2.02195 30.14406 5134 ft 196 kts 270°
2026-04-25 19:27 -2.02206 30.12589 5142 ft 195 kts 270°
2026-04-25 19:27 -2.02216 30.11234 5136 ft 195 kts 270°
2026-04-25 19:28 -2.02227 30.09874 5139 ft 195 kts 270°
2026-04-25 19:28 -2.02237 30.08514 5136 ft 194 kts 270°
2026-04-25 19:28 -2.02247 30.07157 5136 ft 194 kts 270°
2026-04-25 19:28 -2.02251 30.07067 5154 ft 0 kts 287°
2026-04-25 19:33 -2.02251 30.07068 5153 ft 0 kts 287°
2026-04-25 19:34 -2.02251 30.07069 5152 ft 0 kts 288°
2026-04-25 20:10 -2.02251 30.07070 5149 ft 0 kts 292°
2026-04-25 20:10 -2.02252 30.07070 5147 ft 0 kts 292°
2026-04-25 20:39 -2.02252 30.07071 5148 ft 0 kts 295°